User: anonymous
Location: Columbia
(38.9520°N, 92.3340°W)
Time: 20:48:14
(UTC-05:00)
Language:

CZ-2C R/B - Orbit

View from above orbital plane
View from above orbital plane
View from above satellite
View from above satellite

Ground track
Ground track

The orbit data is extracted from the following two-line orbital elements,

1 28480U 04046B   14107.94024454  .00000201  00000-0  91546-4 0  3155
2 28480 098.0819 268.6026 0143136 040.6417 111.0502 14.25280728489504
Epoch (UTC): 17 April 2014 22:33:57
Eccentricity: 0.0143136
inclination: 98.0819°
perigee height: 705 km
apogee height: 910 km
right ascension of ascending node: 268.6026°
argument of perigee: 40.6417°
revolutions per day: 14.25280728
mean anomaly at epoch: 111.0502°
orbit number at epoch: 48950

The dashed part of the orbit path shows where the satellite is in the earth's shadow,  

DLR